CAPE
0 0 0 0 0 0 0 0 0 0 0 0 0 0 0 0 0 0 0 12 145 222 395 329 27 353 343 404 338 640 507 368 402 712 741 1224 1058 1335 1319 1191 1279 1002 1118 1064 801 980 828 733 845 796 684 531 416 663 512 649 916 859 1330 767 1040 1023 677 1723 2031 1890 1319 925 952 766 628 724 197 369 473 699 825 611 646 1283 1763 2590 2601 3033 3314 4281
0 0 0 0 0 0 0 0 0 0 0 0 0 0 0 0 0 0 0 0 10 102 235 315 274 28 478 227 514 654 446 331 370 340 451 1373 1629 1513 1364 1390 907 1223 1227 1085 1062 997 877 637 748 723 565 653 456 677 644 1033 1246 1091 1312 973 1408 1337 979 1785 1865 1796 1063 1069 876 742 480 213 125 63 254 281 278 288 557 1384 1885 2404 2222 2789 3192 3392
0 0 0 0 0 0 0 0 0 0 0 0 0 0 0 0 0 0 1 0 0 1 5 66 187 220 244 218 199 191 327 422 413 552 1268 1233 1158 1572 1339 1246 1313 1330 1362 1153 990 818 752 619 739 813 870 522 673 783 877 1086 1402 1140 1527 1357 1717 1827 1512 1936 1854 1644 1055 837 772 292 187 13 1 47 2 26 35 90 267 1183 1832 2015 2409 2758 2975 3038
0 0 0 0 0 0 0 0 0 0 0 0 0 0 0 0 0 0 0 1 0 0 0 1 20 92 149 288 198 136 508 421 417 346 355 1656 1354 1360 1404 794 921 1159 1431 1158 1299 1185 843 1068 1024 890 1068 975 893 1040 795 910 1522 1455 1748 1810 1932 2037 1905 2093 1967 1895 1119 686 707 550 193 1 0 0 24 17 72 50 163 655 1673 1741 2422 2842 2980 2994
0 0 0 0 0 0 0 0 0 0 0 0 0 0 0 0 0 0 1 0 0 0 0 0 0 2 2 46 146 186 90 140 170 315 787 1046 1257 1539 905 840 892 1007 1455 1266 1267 1193 1255 1122 1102 1154 1204 1180 775 1085 1288 1354 1645 1641 1698 1920 2117 2087 1828 2091 2136 1992 1342 936 991 981 498 119 7 96 327 291 183 326 169 429 1242 1688 2145 2790 2958 3004
0 0 0 0 0 0 0 0 0 0 0 0 0 0 0 0 0 0 0 2 4 1 2 0 0 0 0 0 17 71 127 129 276 323 664 1102 551 1036 674 967 1421 1445 1465 1466 1628 961 1137 1254 1379 1335 1331 1271 1212 1233 1434 1385 1519 1770 1761 2120 2480 2339 2140 1994 2251 2073 1586 1443 1576 1302 714 594 201 434 926 868 310 216 550 180 287 1121 1736 2057 2645 2919
0 0 0 0 0 0 0 0 0 0 0 0 0 0 0 0 0 0 0 0 4 0 1 0 0 0 0 0 0 0 32 235 526 592 136 573 1357 1225 890 1137 1284 1060 1322 873 1475 1381 1016 1249 1393 1335 1444 1551 1290 1406 1537 1637 1777 1955 1982 2214 2500 2520 2248 1900 2564 2225 1947 1845 1688 1569 741 644 511 456 786 1027 285 2 94 127 123 510 1420 2003 2258 2337
0 0 0 0 0 0 0 0 0 0 0 0 0 0 0 0 0 0 0 0 0 0 5 2 0 0 0 0 0 0 0 56 779 508 356 15 1125 1166 1136 868 1243 945 1386 1341 1570 959 1020 1219 1392 1669 1708 1595 1328 1384 1499 1620 1805 2230 2287 2457 2453 2472 2290 2016 2564 2446 2219 2329 2176 1760 1153 657 711 187 532 692 482 9 1 12 38 175 834 1843 2328 2262
0 0 0 0 0 0 0 0 0 0 0 0 0 0 0 0 0 0 0 0 0 0 1 2 0 0 0 0 0 0 0 0 113 409 393 111 328 773 952 752 1108 1252 1048 960 1193 1788 900 1496 1569 1736 1916 1800 1510 1391 1489 1618 1661 2055 2467 2809 2909 2466 2303 2293 2703 2567 2210 2380 2206 2061 1601 981 544 223 34 225 354 148 62 90 162 274 544 1669 2330 2380
0 0 0 0 0 0 0 0 0 0 0 0 0 0 0 0 0 0 0 0 0 0 0 0 3 2 0 0 0 0 0 0 1 321 361 296 518 270 563 585 474 1187 1641 1725 1318 1227 1070 1193 1705 1832 1789 1764 1578 1512 1554 1546 1622 1882 2465 2899 2982 2809 2577 2347 2737 2776 2491 2251 2518 2323 2045 1403 930 438 122 123 694 745 561 424 733 707 1288 1492 2390 2814
0 0 0 0 0 0 0 0 0 0 0 0 0 0 0 0 0 0 0 0 0 0 0 0 4 2 1 0 0 0 0 0 0 107 731 544 316 737 1069 1099 544 974 1282 1339 1673 1390 1506 1614 1716 1893 2050 2113 1688 1582 1641 1596 1577 1873 2332 2852 2978 2839 2667 2675 2783 2989 2774 2215 2468 2302 2234 1821 1412 914 541 528 937 1462 1178 1115 1104 1279 1554 1715 1784 2638
0 0 0 0 0 0 0 0 0 0 0 0 0 0 0 0 0 0 0 0 0 0 0 0 0 10 1 0 0 0 0 0 1 6 434 438 128 340 737 760 987 818 1346 1260 1661 1477 1435 1750 2023 1993 2067 2083 1974 1582 1419 1664 1676 2034 2399 2824 3222 3191 2955 2908 2925 2963 2913 2421 2299 2425 2403 2161 2015 1589 984 882 945 1836 1810 1753 1572 1777 1680 1887 1551 2096
0 0 0 0 0 0 0 0 0 0 0 0 0 0 0 0 0 0 0 0 0 0 0 0 0 0 0 0 1 6 0 0 0 0 469 449 500 603 1008 1124 711 453 1046 1021 1391 1386 1392 1385 1052 1968 2248 2369 2202 2038 1987 1872 1814 1924 2282 2854 3289 3362 3248 3054 2931 3203 3043 2656 2386 2630 2671 2597 2410 2293 1703 1458 1268 1970 2322 2244 1897 1927 1954 1980 1737 1676
0 0 0 0 0 0 0 0 0 0 0 0 0 0 0 0 0 0 0 0 0 0 0 0 0 0 0 0 0 4 8 0 0 0 0 105 247 241 707 989 1157 1022 1305 1369 1464 1191 1898 1902 2283 2246 2307 2387 2286 2077 2114 1950 2110 2134 2388 2943 3189 3375 3304 3078 3130 3223 3129 2888 2629 2706 2759 2698 2734 2693 2278 1839 1498 1680 2416 2529 2253 1667 1627 2064 1848 1438
0 0 0 0 0 0 0 0 0 0 0 0 0 0 0 0 0 0 0 0 0 0 0 0 0 0 0 0 0 0 0 12 0 0 0 32 149 192 293 569 578 1692 1215 1061 1219 1734 2412 2140 2510 2358 2397 2516 2496 2193 2158 2350 2488 2608 2692 3191 3349 3478 3452 3336 3357 3385 3099 3142 2956 2844 2744 2747 2870 2725 2704 2529 1904 1894 2322 2170 2084 1795 1304 1527 1831 1422
0 0 0 0 0 0 0 0 0 0 0 0 0 0 0 0 0 0 0 0 0 0 0 0 0 0 0 0 0 0 0 0 0 0 0 2 99 335 412 617 656 738 908 1566 1238 1158 1660 2794 2718 2604 2512 2643 2662 2526 2322 2228 2582 2680 2954 3351 3472 3591 3714 3507 3495 3394 3199 3371 2795 3047 2988 3057 3295 3227 2910 2917 2732 2334 2365 2440 2150 2137 1819 1395 1661 1842
0 0 0 2 0 0 0 0 0 0 0 0 0 0 0 0 0 0 0 0 0 0 0 0 0 0 0 0 0 0 0 0 0 0 0 0 191 412 510 709 648 389 664 1334 1386 1406 2236 2837 2876 2665 2620 2790 2820 2683 2509 2743 2874 2958 3176 3484 3745 3876 3889 3906 3728 3652 3516 3471 3062 3053 2869 2931 3134 3061 2982 3004 2984 2385 2488 2545 2376 2124 1961 1424 1480 1899
2 13 18 5 1 0 0 0 0 0 0 0 0 0 0 0 0 0 0 0 0 0 0 0 0 0 0 0 0 0 0 0 0 0 0 0 0 234 416 520 542 641 451 537 1033 1126 2325 2830 2902 2814 2756 2810 2978 2958 2795 2997 2920 3092 3307 3707 3910 4037 3942 4037 3857 3788 3732 3414 3046 3079 2961 2896 2986 2895 2787 2628 2777 2853 2558 2585 2710 2292 2258 1755 1268 1449
2 8 6 1 0 1 2 2 1 0 0 0 1 2 0 0 0 0 0 0 0 0 0 0 0 0 0 0 0 0 0 0 0 0 0 0 0 0 11 655 918 260 427 526 897 1736 2158 2699 2917 2825 2722 2743 3005 3096 3020 2972 3044 3224 3388 3641 3888 4040 4012 3909 3795 3685 3658 3373 3088 2976 2860 2962 3012 2898 2697 2646 2938 3139 2741 2540 2748 2606 2167 2131 1658 1692
0 0 10 10 2 0 4 3 5 0 0 0 0 0 1 0 0 0 0 0 0 0 0 0 0 0 0 0 0 0 0 0 0 0 0 0 0 0 0 0 228 705 404 735 1061 684 1064 2345 2695 2817 2727 2700 2891 3176 3056 2982 3031 3048 3355 3610 3794 3939 4086 4064 3818 3754 3731 3419 2799 2955 3158 3247 3231 3046 2858 2911 3146 3282 3072 2886 2888 2791 2023 2275 1981 1862
0 0 1 3 1 5 5 2 2 4 0 0 0 0 5 2 0 0 0 0 0 0 0 0 0 0 0 0 0 0 0 0 0 0 0 0 0 0 0 0 2 398 817 788 962 1096 1319 1717 2469 2614 2697 2631 2858 2911 2965 2644 3012 3173 3270 3519 3688 3931 3864 3944 3629 3652 3664 2984 3031 3318 3368 3182 3214 3072 3012 3023 3043 3254 3271 3232 2926 2847 2161 2342 2145 2017
0 0 0 0 9 24 2 5 12 2 4 5 0 2 0 3 3 0 0 0 0 0 0 0 0 0 0 0 0 0 0 0 0 0 0 0 0 0 0 0 0 13 352 700 464 210 440 1456 2418 2450 2541 2568 2569 2892 3045 2970 2718 3125 3201 3383 3540 3651 3754 3737 3538 3677 3490 3428 3236 3228 3428 3229 3238 3053 3038 2949 3000 3192 3476 3283 3207 3048 2584 2065 2301 2172
0 0 0 0 14 16 8 2 1 0 2 3 1 3 2 2 3 5 1 0 0 0 0 0 0 9 12 0 0 0 0 0 0 0 0 0 0 0 0 0 0 0 18 358 658 467 306 1162 2020 2338 2509 2482 2553 2896 2968 2977 3029 3065 3172 3202 3332 3470 3598 3453 3383 3459 3731 3537 3583 3473 3388 3188 3226 3108 3194 3117 3097 3292 3364 3376 3278 2983 2840 2155 2299 2376
0 0 0 0 4 1 2 3 4 1 4 1 0 12 2 6 9 5 0 0 0 0 2 0 0 8 0 2 0 0 0 0 0 0 0 0 0 0 0 0 0 0 40 183 286 217 423 711 1958 2443 2570 2626 2516 2839 3025 3052 3044 3047 2982 3060 3154 3259 3390 3366 3252 3385 3756 3660 3662 3265 3164 3261 3242 2984 3158 3091 3014 3089 3165 3068 3094 2832 2982 2682 2128 2588
0 0 0 8 7 5 0 9 4 0 2 2 9 1 4 3 2 3 2 49 32 24 9 0 0 0 2 0 0 0 0 0 0 0 0 0 0 0 0 0 0 87 234 193 267 227 375 504 1466 2639 2761 3156 2817 2651 2966 2976 3046 3064 3088 3165 3236 3108 3254 3098 3080 3190 3710 3544 3367 3048 3340 3160 3005 2994 3077 2949 2952 3208 2960 2592 2697 2830 2851 2772 2199 2291
0 0 0 0 5 25 0 0 10 32 10 0 0 8 4 5 10 4 25 59 4 9 15 21 3 0 19 3 0 0 0 0 0 0 0 0 0 0 0 0 131 224 399 287 345 168 62 1234 2715 3484 3236 3222 2712 2546 3016 3191 3093 3068 3135 3145 3141 3087 3150 2867 2938 3154 3641 3496 3247 3298 3267 3068 2898 3011 3090 3078 2936 2905 2773 2296 2208 2802 2898 2804 2480 2197
0 0 4 0 1 10 40 79 0 0 0 0 0 1 2 12 3 19 1 3 0 18 17 10 18 34 0 2 4 2 0 0 0 0 10 0 0 0 0 0 0 653 1058 431 841 442 733 3072 2734 2703 3279 2932 2720 2528 2825 2937 2970 2976 3192 3157 3190 3170 2987 2999 3062 3313 3691 3631 3067 3242 3215 3053 2986 3090 3166 3161 2933 2657 2596 2218 1757 2018 2650 2678 2509 2167
0 0 0 0 0 0 0 0 24 1 0 0 0 0 1 8 15 6 2 1 22 4 7 4 72 13 54 16 16 130 419 204 96 43 35 1 0 0 0 0 0 0 153 508 922 1227 1776 2166 3009 3215 3154 2999 2718 2502 2637 2896 2874 2807 3032 3158 3201 2729 2708 3038 3029 3474 3848 3686 3164 3472 3416 3447 3114 2935 3272 3287 3348 2787 2440 2185 1647 1884 2245 2765 2664 2285
0 0 0 0 0 0 0 0 0 1 0 0 0 0 0 8 10 22 18 3 5 8 15 4 11 27 42 38 181 310 371 235 97 33 131 135 140 194 251 34 0 0 3 61 347 839 1381 1856 3162 3191 2986 2988 2717 2472 2417 2625 2756 2857 2924 3068 3151 3032 3045 3185 3300 3478 3678 3805 3616 3732 3858 4022 3444 3238 3260 3347 3268 2861 2573 2371 2026 2019 2368 2897 2802 2230
4 0 0 0 3 0 0 0 0 1 0 0 0 0 0 1 4 16 1 0 7 1 5 10 11 10 52 196 120 50 198 88 38 73 100 312 338 241 364 405 96 84 18 38 283 584 1040 1699 2501 3299 3266 3356 2802 2521 2255 2501 2892 2789 2844 3066 3020 3123 3105 3196 3306 3684 3891 3902 3835 3943 4098 4262 3960 3455 3520 3359 3384 3424 2927 2621 2454 1984 2279 2857 3047 2698
0 2 2 4 4 0 0 0 0 0 0 0 0 3 3 0 0 2 9 6 6 2 4 15 16 23 5 336 202 66 61 47 18 84 134 227 207 228 299 284 337 290 30 106 173 503 722 1340 1791 3057 3576 3557 3163 2727 2386 2492 2643 2757 2766 2945 2949 3205 3103 3145 3484 3607 3880 4057 3965 4173 4460 4534 3986 3881 3992 3882 3750 3669 3428 3303 2810 2700 3158 3269 3334 3305
0 0 0 13 9 2 0 0 0 0 2 7 7 5 4 0 0 0 0 0 0 8 6 4 11 4 2 25 76 83 122 124 34 67 100 177 120 276 385 256 184 227 176 154 1103 1396 1933 1732 1666 2295 3148 3269 3150 2819 2461 2758 2530 2672 2613 2768 2832 2740 2808 3103 3402 3679 4009 4031 4209 4495 4597 4570 4460 4262 4274 4242 4213 4202 3907 3310 3395 3539 3396 3154 3441 3763
0 0 0 1 0 0 0 0 0 0 1 14 25 18 5 0 0 0 0 0 0 3 4 4 4 4 6 166 39 153 224 260 284 251 224 196 268 33 160 568 290 261 469 383 425 880 1568 1525 1385 1573 2672 2945 2819 2441 2304 2369 2402 2910 2766 2943 2914 2888 2812 3017 3219 3634 4130 4249 4397 4643 4738 4650 4502 4519 4415 4443 4526 4545 4318 4004 3619 3272 3177 3247 3630 3666
0 0 0 0 2 2 0 0 4 9 20 0 3 16 24 4 0 0 0 0 0 0 6 3 4 30 32 79 127 76 218 229 318 309 236 168 267 1154 1421 1438 1161 708 889 642 709 1156 2308 2724 3387 3602 2881 2363 3064 2556 2171 2146 2288 2772 2710 2695 2910 2930 3270 3540 3403 3746 4004 4358 4498 4637 4725 4789 4840 4654 4675 4815 4770 4744 4495 4043 3938 3566 3464 3530 3770 3974
114 18 0 0 0 1 0 5 4 3 1 0 0 5 10 25 2 0 0 0 10 21 14 27 36 28 36 32 73 69 113 187 156 199 261 169 743 811 811 813 944 1068 1479 1764 1912 2217 2713 3172 3389 3514 3433 2962 2321 2704 2734 2085 2067 2776 2985 2853 2992 3046 3609 3073 3478 3919 4165 4392 4550 4686 4888 4992 4836 4908 5052 4993 4830 4955 4598 4281 4258 3955 3508 3444 3719 4106
107 45 4 0 0 0 2 2 2 0 4 6 0 12 5 1 4 2 0 6 86 100 47 21 10 24 35 2 2 40 55 98 148 268 446 367 6 232 56 236 431 766 1167 1562 1874 2273 2812 2893 3254 3502 3870 4244 3358 1646 2430 2533 1899 2212 2886 2824 2919 3004 2979 3318 3956 3880 4216 4409 4490 4661 4937 5006 5056 5030 5088 5041 5030 5002 4747 4578 4557 4403 3862 3521 3421 3908
36 174 113 2 0 0 0 0 0 0 0 0 0 0 12 52 98 77 63 433 207 193 152 118 126 91 12 1 35 38 186 105 136 190 322 276 200 0 0 1 104 451 686 1115 1443 2006 2549 2782 3072 3409 3808 3676 3618 2453 1387 2444 1990 2229 2808 2934 2991 3173 3052 3313 3793 4034 4356 4317 4449 4703 4998 4989 4993 5016 5020 5055 5010 4941 4746 4817 4814 4461 4293 3887 3538 3671
202 98 174 54 20 0 0 2 0 0 0 0 444 230 137 138 140 248 122 24 74 158 60 44 55 31 1 1 55 66 65 565 177 113 1 320 550 543 494 507 664 813 840 854 1385 1960 2356 2621 2689 3218 3593 3210 2792 2454 1530 1819 2424 2722 3289 3282 3205 3183 3048 3199 3579 4052 4490 4418 4534 4882 5038 4984 4989 4975 4952 5037 4983 4900 4857 4820 4780 4544 4318 4089 3653 3247
250 221 267 146 83 1 0 0 2 0 7 442 463 226 172 82 119 10 117 40 76 50 0 10 6 1 0 0 10 55 406 124 145 347 0 0 91 425 490 613 715 758 762 669 1005 1595 2244 2607 2784 2964 3021 3125 2432 1958 1472 1531 2475 2677 3125 3133 2956 3195 3067 3189 3638 4110 4546 4528 4644 4911 5054 4975 4902 4964 4866 4961 4944 4724 4788 4815 4879 4696 4388 4063 3814 3408
60 137 93 217 131 99 24 3 0 0 0 374 401 216 159 103 78 107 68 16 181 19 1 0 0 0 0 0 0 39 2 89 8 0 0 268 425 396 378 443 517 617 671 613 925 1764 2256 2562 2860 3283 3422 2717 2370 1868 1392 1475 2430 2889 2869 2601 2972 3106 3228 3328 3801 4275 4609 4644 4652 4834 4922 4815 5003 4996 4831 5048 4890 4758 4941 4782 4730 4610 4499 4363 3946 3529
70 56 54 257 193 144 35 0 0 0 233 215 282 157 86 49 10 317 28 10 14 10 1 3 0 1 3 1 0 0 0 0 0 0 0 0 0 314 464 559 590 627 784 884 824 1239 1802 2580 2741 2848 3139 2757 2364 1749 1438 1651 2491 3219 3599 3517 3336 3274 3266 3539 3947 4405 4820 4693 4522 4617 4850 4789 4901 4906 4683 4860 4877 4728 4563 4514 4577 4492 4439 4282 3859 3766
134 16 47 239 244 171 59 0 0 0 262 149 304 141 133 23 52 61 42 6 32 15 0 3 3 2 6 4 17 0 0 0 0 0 0 0 13 296 417 459 583 835 902 1018 1118 1430 1816 2481 3156 3090 2686 2523 2127 1843 1622 2392 3288 3942 4155 3527 3345 3425 3368 3642 4083 4445 4671 4646 4450 4545 4604 4599 4910 4855 4607 4808 4832 4700 4599 4570 4391 4391 4461 4218 4142 4049
84 21 175 116 159 197 206 65 0 0 395 137 242 60 178 213 226 7 0 7 9 10 2 0 0 0 10 3 9 0 0 0 0 0 0 0 257 490 569 732 889 934 1025 1124 1292 1313 1535 1842 2886 3638 2621 2143 1979 2148 2408 2504 3737 4331 4079 3701 3828 3582 3672 3828 4072 4407 4835 4789 4559 4620 4522 4564 4818 4551 4351 4482 4694 4663 4667 4754 4415 4410 4535 4424 4351 4290
9 20 38 88 240 169 186 80 26 42 78 38 166 312 174 88 2 6 0 5 5 4 0 4 0 0 0 1 0 0 0 0 0 0 0 72 406 572 663 834 922 1014 1165 1299 1307 1380 1677 2146 2851 3311 3184 2232 2293 2369 2426 2872 4020 4007 3934 3762 3953 3640 3789 4181 4289 4535 4869 4784 4537 4545 4507 4398 4506 4557 4346 4580 4824 4832 4742 4687 4528 4422 4513 4601 4401 4300
16 20 93 36 42 5 71 122 276 118 192 25 136 210 152 34 6 0 5 2 3 4 0 3 1 0 0 29 0 0 0 0 0 2 49 373 566 797 972 1063 1156 1234 1344 1414 1640 1780 1926 2236 3104 3440 3721 2875 2786 2586 2902 2721 3591 3847 4061 3997 4061 4032 3786 4228 4517 4688 4927 4747 4517 4479 4286 4440 4634 4615 4223 4442 4730 4760 4658 4663 4469 4554 4546 4636 4407 4371
77 34 81 4 0 36 28 84 112 102 101 118 23 39 59 15 4 3 2 2 2 2 4 5 2 1 2 1 0 22 0 75 0 8 178 466 607 838 960 1164 1260 1304 1515 1596 1681 1819 2236 2285 3232 3279 3716 4014 2991 3152 2987 3394 3712 4152 4118 3915 3963 3925 4069 4227 4685 4739 5019 4687 4399 4351 4404 4393 4517 4466 4251 4426 4627 4753 4800 4670 4388 4510 4626 4528 4353 4459
1 32 9 38 46 1 17 468 197 122 17 1 78 24 4 0 5 4 1 1 2 0 10 22 4 0 0 2 2 0 0 2 112 0 255 456 609 846 1151 1349 1332 1425 1637 1826 1801 1675 2033 2296 2566 3146 3411 3798 3823 3296 3071 3445 3813 4230 4419 4291 3848 3718 4360 4556 4906 4876 4909 4721 4441 4396 4128 4315 4302 4537 4298 4421 4522 4641 4645 4597 4558 4553 4687 4460 4180 4334
28 20 8 17 51 20 76 7 58 113 205 137 81 28 0 4 0 0 0 0 6 5 2 2 1 2 6 4 0 0 25 85 73 0 243 434 592 780 1124 1325 1385 1464 1564 1762 1863 1827 2012 2194 2360 2805 3253 3543 3591 3924 3650 3581 3728 3813 4068 3845 3958 3662 4581 4908 5010 4877 5043 4758 4417 4219 4159 4414 4253 4462 4149 4255 4249 4368 4412 4459 4573 4432 4535 4392 4269 4346
10 3 2 10 3 0 2 3 9 51 86 125 89 66 20 1 4 2 0 0 0 3 4 3 0 5 2 7 7 0 0 4 110 80 322 460 608 680 962 1229 1372 1511 1673 1795 1918 1910 1859 1958 2247 2414 2740 3246 3576 4116 4398 4306 3909 4050 4036 4288 4312 4447 4946 5110 5208 5011 5021 4765 4550 4425 4343 4472 4171 4385 4324 4328 4225 4195 6743 5910 4570 4576 4610 4456 4524 4423
1 1 5 4 1 1 26 58 4 3 61 14 167 178 82 13 2 2 0 0 0 3 4 7 4 2 3 6 5 8 0 0 0 0 218 375 516 722 846 1149 1317 1344 1639 1825 1895 2040 2002 2058 2186 2267 2440 2622 3259 3921 3840 4245 4704 4698 4027 4154 4075 4447 4902 5190 4850 4990 4990 4878 4718 4572 4299 4347 4141 4156 4276 4233 4230 3781 4157 4216 4087 4193 7336 5428 4248 4127
0 1 0 0 0 0 0 0 0 6 13 29 31 0 1 0 0 4 6 0 0 1 3 4 1 12 14 18 17 6 2 1 0 0 52 295 413 582 765 1065 1273 1366 1496 1644 1643 1874 2038 2107 2269 2302 2375 2454 2584 3346 3971 4248 3922 4146 4109 4244 4269 4475 4632 4812 4804 4464 4749 4518 4437 4314 4244 4270 4219 4199 4566 4714 4472 4457 4031 4192 4120 4076 4299 4537 4378 4237
Wind_Speed
nan nan nan nan nan nan nan nan nan nan nan nan nan nan nan nan nan nan nan nan 21 16 15 15 nan 16 24 23 16 14 12 8 8 14 15 6 3 7 9 11 10 9 8 7 6 6 6 6 8 9 9 8 8 10 7 6 6 5 6 4 4 5 4 6 6 6 6 5 5 6 5 4 4 7 5 7 7 7 6 4 5 4 5 5 5 5
nan nan nan nan nan nan nan nan nan nan nan nan nan nan nan nan nan nan nan nan nan 15 15 14 16 nan 17 25 22 17 11 8 9 10 5 13 5 8 10 12 10 9 7 9 7 6 7 7 7 9 10 7 6 8 7 5 5 6 5 4 5 6 6 6 6 7 6 6 6 5 4 5 3 nan 6 6 7 7 5 4 5 5 5 4 4 5
nan nan nan nan nan nan nan nan nan nan nan nan nan nan nan nan nan nan nan nan nan nan nan nan 14 15 17 27 24 21 16 11 9 9 4 9 7 9 11 11 10 8 6 9 7 6 6 7 7 9 10 9 7 8 6 6 6 6 6 7 6 7 7 7 7 7 6 5 4 4 4 nan nan nan nan nan nan nan 5 3 5 5 4 4 4 4
nan nan nan nan nan nan nan nan nan nan nan nan nan nan nan nan nan nan nan nan nan nan nan nan nan nan 17 27 18 17 15 13 12 11 15 16 11 11 9 10 11 6 5 8 8 6 6 6 7 9 10 10 10 9 7 6 5 7 8 7 7 8 7 8 7 6 4 3 3 4 5 nan nan nan nan nan nan nan 9 4 4 6 5 5 6 5
nan nan nan nan nan nan nan nan nan nan nan nan nan nan nan nan nan nan nan nan nan nan nan nan nan nan nan nan 19 20 nan 18 14 12 12 2 10 13 13 12 7 8 7 4 6 5 5 5 5 7 11 10 9 9 7 6 6 10 6 7 8 9 8 9 7 5 4 3 3 4 6 6 nan nan 8 7 8 8 8 9 5 5 5 5 7 6
nan nan nan nan nan nan nan nan nan nan nan nan nan nan nan nan nan nan nan nan nan nan nan nan nan nan nan nan nan nan 20 20 15 11 13 17 13 16 11 10 11 10 7 3 6 5 5 5 8 9 10 9 10 9 9 8 7 9 9 9 9 11 9 8 6 4 5 4 4 5 6 7 8 10 9 8 8 7 6 8 6 4 5 5 6 6
nan nan nan nan nan nan nan nan nan nan nan nan nan nan nan nan nan nan nan nan nan nan nan nan nan nan nan nan nan nan nan 23 15 18 12 18 20 20 14 13 14 11 5 3 3 5 5 5 7 8 9 9 10 11 12 11 10 9 10 10 10 11 10 8 7 4 6 5 6 5 6 8 8 8 9 9 9 nan nan 8 8 6 4 4 6 5
nan nan nan nan nan nan nan nan nan nan nan nan nan nan nan nan nan nan nan nan nan nan nan nan nan nan nan nan nan nan nan nan 26 19 19 nan 22 19 19 17 16 10 5 1 4 7 6 7 7 7 8 10 12 14 14 13 12 10 11 11 10 12 10 9 7 5 6 7 8 7 7 8 8 7 7 7 9 nan nan nan nan 7 5 3 5 6
nan nan nan nan nan nan nan nan nan nan nan nan nan nan nan nan nan nan nan nan nan nan nan nan nan nan nan nan nan nan nan nan 21 22 22 21 22 20 21 18 14 9 6 2 2 4 6 7 7 9 10 11 14 15 14 13 13 13 13 13 12 11 10 8 6 6 6 9 9 9 9 8 8 6 nan 7 7 8 nan nan 7 7 5 4 3 5
nan nan nan nan nan nan nan nan nan nan nan nan nan nan nan nan nan nan nan nan nan nan nan nan nan nan nan nan nan nan nan nan nan 23 23 24 24 23 20 14 9 11 8 5 1 2 6 6 6 9 12 13 14 16 16 16 16 15 15 14 11 10 10 8 6 7 7 9 11 9 9 7 7 6 6 7 6 7 7 8 7 6 6 5 4 3
nan nan nan nan nan nan nan nan nan nan nan nan nan nan nan nan nan nan nan nan nan nan nan nan nan nan nan nan nan nan nan nan nan 25 29 23 26 24 20 18 10 12 9 3 4 6 6 7 6 10 12 12 14 17 16 16 16 15 15 13 11 10 11 9 7 8 8 9 10 10 8 6 4 3 4 5 6 6 6 6 5 5 5 5 4 4
nan nan nan nan nan nan nan nan nan nan nan nan nan nan nan nan nan nan nan nan nan nan nan nan nan nan nan nan nan nan nan nan nan nan 27 25 21 19 20 18 14 13 13 5 4 6 6 7 8 12 13 15 14 15 16 15 16 15 15 14 12 11 10 9 9 9 10 10 9 9 7 5 3 2 4 4 4 5 4 4 4 4 4 4 5 4
nan nan nan nan nan nan nan nan nan nan nan nan nan nan nan nan nan nan nan nan nan nan nan nan nan nan nan nan nan nan nan nan nan nan 28 24 22 25 20 22 20 19 9 5 9 6 6 9 13 14 15 15 15 14 14 14 14 15 15 15 13 11 10 10 9 10 10 10 10 10 8 6 4 3 4 4 4 4 4 4 3 3 3 4 4 3
nan nan nan nan nan nan nan nan nan nan nan nan nan nan nan nan nan nan nan nan nan nan nan nan nan nan nan nan nan nan nan nan nan nan nan 24 22 23 23 25 28 24 12 14 15 9 2 13 14 15 15 14 13 13 14 14 15 16 16 15 14 12 11 11 10 11 10 10 10 10 9 7 5 4 5 6 5 4 4 4 3 2 2 2 1 1
nan nan nan nan nan nan nan nan nan nan nan nan nan nan nan nan nan nan nan nan nan nan nan nan nan nan nan nan nan nan nan nan nan nan nan nan 26 25 23 25 23 22 12 13 11 6 5 11 14 14 14 14 13 13 14 15 15 16 16 16 15 15 13 12 12 13 11 12 12 11 9 8 6 6 7 7 7 5 4 4 3 3 2 1 1 1
nan nan nan nan nan nan nan nan nan nan nan nan nan nan nan nan nan nan nan nan nan nan nan nan nan nan nan nan nan nan nan nan nan nan nan nan nan 25 21 26 23 22 20 18 12 6 4 12 13 13 13 13 13 13 14 14 14 14 15 16 15 16 15 14 14 14 14 14 13 11 10 7 7 9 10 10 9 7 5 5 5 4 2 2 2 2
nan nan nan nan nan nan nan nan nan nan nan nan nan nan nan nan nan nan nan nan nan nan nan nan nan nan nan nan nan nan nan nan nan nan nan nan 32 28 22 25 23 23 17 12 10 6 2 11 12 11 13 13 13 13 13 14 14 14 16 17 17 17 17 16 15 16 17 17 15 12 10 9 8 9 9 10 8 6 7 7 5 4 2 1 4 3
nan nan nan nan nan nan nan nan nan nan nan nan nan nan nan nan nan nan nan nan nan nan nan nan nan nan nan nan nan nan nan nan nan nan nan nan nan 30 25 22 21 21 20 9 9 6 6 10 13 11 11 12 13 14 13 13 14 15 17 18 18 18 18 17 17 18 19 18 17 15 11 9 8 10 11 10 10 9 8 7 7 5 3 2 4 4
nan nan nan nan nan nan nan nan nan nan nan nan nan nan nan nan nan nan nan nan nan nan nan nan nan nan nan nan nan nan nan nan nan nan nan nan nan nan nan 28 20 18 18 17 13 16 8 9 13 13 12 12 13 12 12 13 14 15 17 18 18 18 18 19 20 20 21 20 20 17 13 11 10 12 13 12 11 10 8 6 6 4 4 4 5 5
nan nan nan nan nan nan nan nan nan nan nan nan nan nan nan nan nan nan nan nan nan nan nan nan nan nan nan nan nan nan nan nan nan nan nan nan nan nan nan nan 25 20 18 19 20 18 8 4 12 14 13 13 14 13 12 14 13 15 16 18 19 19 21 21 21 22 22 21 20 19 17 14 13 14 15 14 12 11 9 8 7 5 4 5 6 6
nan nan nan nan nan nan nan nan nan nan nan nan nan nan nan nan nan nan nan nan nan nan nan nan nan nan nan nan nan nan nan nan nan nan nan nan nan nan nan nan nan 26 24 21 22 20 12 4 9 14 14 13 14 13 12 12 13 13 15 17 19 21 21 20 20 21 22 23 22 21 18 15 15 15 16 14 13 12 12 10 9 7 6 8 8 8
nan nan nan nan nan nan nan nan nan nan nan nan nan nan nan nan nan nan nan nan nan nan nan nan nan nan nan nan nan nan nan nan nan nan nan nan nan nan nan nan nan nan 25 22 20 23 16 6 7 14 15 16 16 16 15 14 14 14 14 15 17 19 20 21 21 21 23 24 24 22 20 18 18 17 17 15 14 13 13 12 10 10 8 8 10 10
nan nan nan nan nan nan nan nan nan nan nan nan nan nan nan nan nan nan nan nan nan nan nan nan nan nan nan nan nan nan nan nan nan nan nan nan nan nan nan nan nan nan nan 24 22 22 15 6 10 15 18 18 17 17 17 16 16 15 15 15 16 17 18 20 21 22 24 25 24 23 23 21 20 19 18 16 15 13 13 13 12 12 10 10 12 12
nan nan nan nan nan nan nan nan nan nan nan nan nan nan nan nan nan nan nan nan nan nan nan nan nan nan nan nan nan nan nan nan nan nan nan nan nan nan nan nan nan nan nan 24 23 20 21 17 20 21 19 19 18 18 19 17 16 16 15 15 15 16 17 19 21 23 24 25 24 24 25 23 22 20 19 17 16 14 14 15 14 13 12 12 14 14
nan nan nan nan nan nan nan nan nan nan nan nan nan nan nan nan nan nan nan nan nan nan nan nan nan nan nan nan nan nan nan nan nan nan nan nan nan nan nan nan nan nan 28 25 25 24 27 24 25 24 21 20 20 19 19 19 18 18 17 17 16 16 18 19 20 22 24 24 25 25 25 23 22 20 19 18 18 16 15 14 16 16 14 14 14 15
nan nan nan nan nan nan nan nan nan nan nan nan nan nan nan nan nan nan nan nan nan nan nan nan nan nan nan nan nan nan nan nan nan nan nan nan nan nan nan nan 55 41 34 31 29 29 nan 30 30 28 25 23 20 20 20 20 20 18 17 16 17 18 19 19 20 21 23 24 26 26 25 24 22 20 19 19 18 18 17 16 16 18 17 15 14 15
nan nan nan nan nan nan nan nan nan nan nan nan nan nan nan nan nan nan nan nan nan nan nan nan nan nan nan nan nan nan nan nan nan nan nan nan nan nan nan nan nan 51 49 41 42 40 38 37 29 27 28 24 22 23 23 20 21 20 19 17 17 19 19 20 21 22 24 25 25 26 26 25 22 21 20 20 19 20 20 17 16 17 18 17 16 15
nan nan nan nan nan nan nan nan nan nan nan nan nan nan nan nan nan nan nan nan nan nan nan nan nan nan nan nan nan 39 47 48 nan nan nan nan nan nan nan nan nan nan 42 40 38 40 40 40 34 31 30 27 26 27 26 22 21 22 22 19 18 19 20 20 21 22 24 25 25 26 26 26 25 23 22 22 21 21 21 19 18 18 20 20 17 15
nan nan nan nan nan nan nan nan nan nan nan nan nan nan nan nan nan nan nan nan nan nan nan nan nan nan nan nan 38 43 41 46 nan nan 50 51 57 59 55 nan nan nan nan nan 43 41 39 37 35 32 31 30 29 29 27 24 22 23 24 23 21 20 20 21 21 23 24 25 25 25 26 27 27 26 25 24 23 21 21 21 20 20 21 22 19 18
nan nan nan nan nan nan nan nan nan nan nan nan nan nan nan nan nan nan nan nan nan nan nan nan nan nan nan 43 38 nan 37 nan nan nan 44 46 58 57 54 53 nan nan nan nan 48 44 44 40 38 36 35 34 31 31 29 26 24 23 24 24 24 22 23 23 21 22 24 25 25 25 26 28 29 29 28 26 25 23 22 21 21 20 21 22 21 20
nan nan nan nan nan nan nan nan nan nan nan nan nan nan nan nan nan nan nan nan nan nan nan nan nan nan nan 45 50 nan nan nan nan nan 52 51 51 56 57 57 61 58 nan 59 64 62 53 46 42 39 38 35 33 32 30 27 24 22 22 25 26 26 26 25 22 21 22 24 25 26 27 28 28 29 28 28 28 26 24 22 22 22 23 23 23 22
nan nan nan nan nan nan nan nan nan nan nan nan nan nan nan nan nan nan nan nan nan nan nan nan nan nan nan nan nan nan 42 44 nan nan nan 50 54 53 56 58 61 60 59 58 59 58 56 52 44 41 37 33 31 31 30 28 25 23 21 24 25 27 28 26 23 21 21 23 24 25 26 27 28 28 29 29 29 29 26 23 23 23 23 22 23 23
nan nan nan nan nan nan nan nan nan nan nan nan nan nan nan nan nan nan nan nan nan nan nan nan nan nan nan 75 nan 55 48 46 49 51 51 48 48 nan 55 59 59 59 61 59 56 56 58 55 52 46 38 35 32 31 28 27 26 24 21 22 24 27 28 27 25 23 21 22 23 24 25 27 27 28 29 29 29 30 28 25 23 22 21 21 23 24
nan nan nan nan nan nan nan nan nan nan nan nan nan nan nan nan nan nan nan nan nan nan nan nan nan nan nan nan 62 nan 58 51 50 49 48 47 49 55 60 61 60 58 59 58 55 54 54 55 53 53 49 40 33 30 27 27 27 25 24 24 26 25 27 28 28 25 22 21 22 23 25 27 27 26 28 29 29 29 28 26 24 22 23 24 24 24
19 nan nan nan nan nan nan nan nan nan nan nan nan nan nan nan nan nan nan nan nan nan nan nan nan nan nan nan nan nan 55 54 51 51 49 54 59 56 59 60 60 59 57 55 56 57 58 56 52 49 45 46 41 33 30 29 27 28 28 26 25 25 26 27 28 28 25 23 22 23 25 27 26 25 26 28 28 28 27 26 25 24 24 24 24 23
22 nan nan nan nan nan nan nan nan nan nan nan nan nan nan nan nan nan nan nan nan nan nan nan nan nan nan nan nan nan nan nan 49 50 58 60 nan 56 nan 60 61 60 57 57 57 55 56 56 57 54 51 47 44 38 32 29 28 28 28 27 26 25 26 28 29 29 28 25 23 23 26 28 27 25 25 26 27 27 26 26 25 25 25 24 23 24
nan 24 24 nan nan nan nan nan nan nan nan nan nan nan nan nan nan nan nan 62 68 65 59 56 55 nan nan nan nan nan 57 54 46 44 64 63 61 nan nan nan 61 60 60 59 58 57 56 55 53 53 50 44 41 39 34 31 30 29 29 27 27 27 26 28 28 29 30 28 26 25 26 28 27 25 24 25 26 26 26 26 25 25 26 24 24 23
17 nan 26 nan nan nan nan nan nan nan nan nan 56 61 64 59 51 48 55 nan nan 62 nan nan nan nan nan nan nan nan nan 50 46 45 nan 65 62 58 56 58 59 61 62 63 60 58 57 55 56 56 53 46 40 38 36 33 33 34 32 29 29 29 28 27 27 29 31 30 29 28 27 28 28 26 25 24 25 25 26 26 25 25 26 24 23 23
15 18 22 25 nan nan nan nan nan nan nan 54 54 59 58 nan 56 nan 55 nan nan nan nan nan nan nan nan nan nan nan 54 51 49 61 nan nan nan 59 57 58 58 61 64 64 63 61 61 60 59 56 51 45 40 38 36 34 34 35 34 30 27 29 30 27 27 28 29 31 31 29 28 29 29 27 25 24 24 25 25 25 25 25 26 24 24 23
nan 18 nan 21 22 nan nan nan nan nan nan 48 57 54 57 57 nan 52 nan nan 58 nan nan nan nan nan nan nan nan nan nan nan nan nan nan 60 60 59 59 58 59 61 65 66 65 66 65 62 58 54 50 43 39 39 37 34 36 36 35 32 28 29 30 29 27 27 30 32 32 30 29 29 29 27 25 24 25 25 25 25 25 25 25 25 24 23
nan nan nan 17 20 20 nan nan nan nan 39 49 51 53 nan nan nan 49 nan nan nan nan nan nan nan nan nan nan nan nan nan nan nan nan nan nan nan 62 61 59 58 58 60 63 65 67 63 62 60 55 51 47 42 39 37 38 37 38 38 36 31 27 27 30 32 31 32 32 32 30 29 29 29 27 25 25 26 26 25 25 24 24 25 24 25 24
10 nan nan 17 16 18 nan nan nan nan 42 42 43 48 53 nan nan nan nan nan nan nan nan nan nan nan nan nan nan nan nan nan nan nan nan nan nan 60 60 60 59 59 58 59 61 62 63 63 62 55 50 46 42 40 39 41 43 43 42 39 32 27 29 36 36 34 33 32 32 31 29 29 30 28 26 25 26 26 25 24 23 24 24 24 24 23
nan nan 15 13 16 19 23 nan nan nan 44 44 43 nan 53 44 55 nan nan nan nan nan nan nan nan nan nan nan nan nan nan nan nan nan nan nan 63 61 60 59 57 58 57 56 57 60 61 61 59 54 48 45 42 42 41 41 45 47 44 38 34 34 38 40 38 36 34 33 33 31 30 30 31 29 26 25 26 26 26 25 23 23 24 23 24 23
nan nan nan nan 24 19 20 nan nan nan nan nan 46 43 49 nan nan nan nan nan nan nan nan nan nan nan nan nan nan nan nan nan nan nan nan nan 61 59 58 56 55 56 55 55 55 56 58 57 57 51 47 44 43 44 43 43 47 47 42 37 40 42 44 43 41 39 36 34 33 32 30 30 31 29 26 26 26 26 25 24 23 23 23 24 23 23
nan nan nan nan nan nan nan 32 40 38 41 nan 45 47 44 nan nan nan nan nan nan nan nan nan nan nan nan nan nan nan nan nan nan nan nan 63 59 58 57 54 52 54 52 53 51 52 54 54 54 47 46 44 43 45 44 44 45 45 41 42 45 47 45 44 43 41 37 35 34 31 30 31 31 29 26 26 26 25 24 23 23 23 23 24 23 22
nan nan nan nan nan nan nan nan 28 30 35 41 nan nan nan nan nan nan nan nan nan nan nan nan nan nan nan nan nan nan nan nan nan nan 68 62 58 57 55 52 49 52 53 53 52 55 53 51 51 42 42 46 42 41 42 42 43 42 41 44 47 47 47 47 46 42 39 36 34 31 31 31 31 29 27 27 25 24 23 22 22 23 23 23 23 22
nan nan nan nan nan nan nan 36 41 40 nan nan nan nan nan nan nan nan nan nan nan nan nan nan nan nan nan nan nan nan nan nan 72 nan 67 62 58 56 55 55 51 52 54 53 50 50 49 49 51 51 43 41 43 39 37 38 39 39 40 42 44 46 48 47 46 43 40 37 35 32 30 31 30 29 28 26 25 23 21 21 22 22 23 22 22 20
nan nan nan nan nan nan nan nan nan 37 36 35 nan nan nan nan nan nan nan nan nan nan nan nan nan nan nan nan nan nan nan nan nan nan 65 61 58 55 54 54 54 54 56 53 48 48 48 49 49 50 48 42 40 40 39 37 36 38 38 38 40 42 46 47 46 42 39 37 35 32 31 30 32 30 27 25 23 22 21 20 20 21 21 21 21 19
nan nan nan nan nan nan nan nan nan nan nan 32 nan nan nan nan nan nan nan nan nan nan nan nan nan nan nan nan nan nan nan nan 67 nan 63 60 58 57 55 56 56 54 55 54 51 49 47 47 49 51 50 46 43 44 45 41 39 37 36 39 39 42 43 44 43 41 38 37 34 32 32 31 31 28 26 26 23 25 27 22 20 21 23 22 21 21
nan nan nan nan nan nan nan nan nan nan nan nan 42 44 nan nan nan nan nan nan nan nan nan nan nan nan nan nan nan nan nan nan nan nan 63 62 60 59 59 59 58 56 55 53 50 50 49 51 52 52 51 49 48 45 42 45 46 42 38 38 36 38 37 40 39 37 36 35 34 33 33 31 30 27 26 27 27 34 32 38 42 38 28 28 39 42
nan nan nan nan nan nan nan nan nan nan nan nan nan nan nan nan nan nan nan nan nan nan nan nan nan nan nan nan nan nan nan nan nan nan nan 61 60 61 61 61 60 58 57 56 54 53 54 55 56 55 55 53 49 46 43 44 44 44 42 38 35 34 35 36 36 35 34 34 34 35 34 32 30 29 27 29 30 32 32 32 38 45 47 43 40 42
Wind_Direction
nan nan nan nan nan nan nan nan nan nan nan nan nan nan nan nan nan nan nan nan 256 243 252 249 nan 270 276 265 266 272 270 266 267 228 172 127 304 295 296 292 294 306 308 294 290 274 263 244 215 205 219 226 231 223 209 203 195 185 218 204 215 212 211 214 200 197 186 194 185 181 166 169 160 141 146 133 130 128 126 134 111 82 83 72 77 90
nan nan nan nan nan nan nan nan nan nan nan nan nan nan nan nan nan nan nan nan nan 240 243 242 228 nan 250 275 276 271 263 264 263 256 149 125 280 284 287 284 288 292 288 306 293 291 283 251 247 210 206 218 241 231 222 208 187 182 205 204 208 208 200 209 202 203 192 192 187 179 157 152 163 nan 133 128 124 116 134 142 128 102 91 80 87 106
nan nan nan nan nan nan nan nan nan nan nan nan nan nan nan nan nan nan nan nan nan nan nan nan 228 232 259 262 265 272 270 254 250 279 342 336 275 266 269 274 275 279 306 310 310 312 288 289 272 221 212 206 220 234 225 211 192 179 186 188 199 200 202 203 204 206 194 193 173 152 154 nan nan nan nan nan nan nan 133 135 117 113 115 113 118 121
nan nan nan nan nan nan nan nan nan nan nan nan nan nan nan nan nan nan nan nan nan nan nan nan nan nan 238 264 252 275 272 260 254 219 204 183 259 262 273 274 274 298 308 312 314 323 293 279 254 233 225 212 215 219 216 208 196 178 178 188 193 200 206 207 205 203 202 181 167 150 153 nan nan nan nan nan nan nan 139 144 132 125 126 120 129 126
nan nan nan nan nan nan nan nan nan nan nan nan nan nan nan nan nan nan nan nan nan nan nan nan nan nan nan nan 268 265 nan 260 259 242 226 40 265 267 270 267 268 280 273 266 309 314 291 275 254 238 233 226 217 219 211 206 195 180 184 194 201 203 207 211 219 214 210 194 181 173 158 165 nan nan 188 174 161 156 142 137 148 134 125 128 130 139
nan nan nan nan nan nan nan nan nan nan nan nan nan nan nan nan nan nan nan nan nan nan nan nan nan nan nan nan nan nan 270 266 256 281 288 247 261 266 255 254 251 254 262 318 322 322 308 272 241 224 227 228 224 221 207 198 200 190 193 202 207 209 209 214 235 231 214 203 196 196 187 185 186 182 184 171 154 148 140 126 139 142 128 123 126 133
nan nan nan nan nan nan nan nan nan nan nan nan nan nan nan nan nan nan nan nan nan nan nan nan nan nan nan nan nan nan nan 281 283 265 250 261 243 243 238 233 240 249 243 310 343 311 295 277 256 241 224 223 226 227 217 204 202 200 203 209 216 213 212 218 230 241 214 210 201 211 198 196 195 187 173 163 151 nan nan 144 144 158 155 136 122 121
nan nan nan nan nan nan nan nan nan nan nan nan nan nan nan nan nan nan nan nan nan nan nan nan nan nan nan nan nan nan nan nan 268 271 264 nan 264 258 254 247 243 252 265 218 1 340 328 313 292 270 243 225 221 228 224 210 209 208 209 218 223 214 217 215 220 232 212 211 214 213 202 198 198 183 168 154 147 nan nan nan nan 155 165 161 132 131
nan nan nan nan nan nan nan nan nan nan nan nan nan nan nan nan nan nan nan nan nan nan nan nan nan nan nan nan nan nan nan nan 263 263 259 259 262 250 246 242 254 261 247 256 110 10 340 323 303 266 245 231 228 226 224 217 213 214 212 220 225 223 222 217 230 223 216 211 216 216 206 204 197 179 nan 158 150 150 nan nan 160 155 172 197 160 141
nan nan nan nan nan nan nan nan nan nan nan nan nan nan nan nan nan nan nan nan nan nan nan nan nan nan nan nan nan nan nan nan nan 262 260 257 259 259 251 255 269 267 262 278 246 359 339 315 292 270 251 241 230 228 225 222 218 219 217 221 231 231 223 220 225 223 227 224 222 220 215 216 205 183 167 161 168 163 171 160 164 166 174 190 184 165
nan nan nan nan nan nan nan nan nan nan nan nan nan nan nan nan nan nan nan nan nan nan nan nan nan nan nan nan nan nan nan nan nan 253 256 254 251 257 252 244 237 256 250 269 336 332 320 307 306 286 273 257 243 233 235 229 226 227 225 228 232 232 221 225 227 232 236 229 227 223 227 232 213 194 175 176 180 187 182 175 168 171 177 181 184 188
nan nan nan nan nan nan nan nan nan nan nan nan nan nan nan nan nan nan nan nan nan nan nan nan nan nan nan nan nan nan nan nan nan nan 269 266 266 260 257 261 256 247 236 194 247 248 277 302 329 312 289 272 260 248 245 237 236 236 233 234 239 233 229 223 225 236 236 233 234 230 241 242 226 213 197 194 192 197 189 187 174 181 193 183 182 198
nan nan nan nan nan nan nan nan nan nan nan nan nan nan nan nan nan nan nan nan nan nan nan nan nan nan nan nan nan nan nan nan nan nan 267 276 274 271 263 258 250 240 236 246 235 230 294 322 346 331 305 284 271 259 261 253 248 245 243 250 250 243 235 225 230 239 245 242 241 239 245 242 221 205 206 213 202 209 202 196 190 213 203 203 188 198
nan nan nan nan nan nan nan nan nan nan nan nan nan nan nan nan nan nan nan nan nan nan nan nan nan nan nan nan nan nan nan nan nan nan nan 274 274 273 269 262 242 212 215 243 221 188 319 333 335 330 311 293 276 274 265 260 249 244 244 252 256 252 239 229 229 241 248 250 247 246 242 237 220 206 211 212 211 214 210 206 208 227 232 225 213 190
nan nan nan nan nan nan nan nan nan nan nan nan nan nan nan nan nan nan nan nan nan nan nan nan nan nan nan nan nan nan nan nan nan nan nan nan 261 249 249 254 258 270 248 235 224 200 340 338 328 323 317 300 285 277 267 256 250 247 245 250 256 254 248 240 238 238 250 245 252 249 244 232 215 211 216 215 211 214 218 213 224 224 228 244 217 149
nan nan nan nan nan nan nan nan nan nan nan nan nan nan nan nan nan nan nan nan nan nan nan nan nan nan nan nan nan nan nan nan nan nan nan nan nan 259 252 252 247 242 229 226 226 165 17 323 317 317 318 308 294 289 271 268 254 252 249 253 256 257 255 247 243 240 246 248 247 255 253 242 225 216 219 220 217 216 218 218 217 229 226 208 204 192
nan nan nan nan nan nan nan nan nan nan nan nan nan nan nan nan nan nan nan nan nan nan nan nan nan nan nan nan nan nan nan nan nan nan nan nan 261 256 249 256 251 251 247 237 238 220 338 309 307 312 317 310 307 300 291 279 271 265 256 255 255 252 250 247 244 241 244 247 251 257 256 245 231 229 233 230 235 229 225 221 220 224 252 162 176 204
nan nan nan nan nan nan nan nan nan nan nan nan nan nan nan nan nan nan nan nan nan nan nan nan nan nan nan nan nan nan nan nan nan nan nan nan nan 263 257 251 247 249 267 277 272 263 295 300 301 302 306 315 317 319 314 298 282 265 259 260 260 255 258 253 248 244 244 249 252 254 258 252 238 234 236 232 236 230 227 228 221 218 221 177 177 181
nan nan nan nan nan nan nan nan nan nan nan nan nan nan nan nan nan nan nan nan nan nan nan nan nan nan nan nan nan nan nan nan nan nan nan nan nan nan nan 267 261 258 255 260 236 227 235 282 291 297 310 321 319 315 313 304 290 276 266 263 265 265 263 260 247 245 240 248 243 245 253 255 243 237 238 237 237 238 233 240 240 223 213 197 189 190
nan nan nan nan nan nan nan nan nan nan nan nan nan nan nan nan nan nan nan nan nan nan nan nan nan nan nan nan nan nan nan nan nan nan nan nan nan nan nan nan 268 266 259 261 253 244 223 270 297 305 308 313 317 318 313 310 297 298 283 273 268 263 256 254 253 250 250 252 247 248 250 249 242 242 243 242 243 242 242 242 244 237 229 204 199 196
nan nan nan nan nan nan nan nan nan nan nan nan nan nan nan nan nan nan nan nan nan nan nan nan nan nan nan nan nan nan nan nan nan nan nan nan nan nan nan nan nan 261 256 257 262 256 227 204 288 293 297 299 301 296 294 299 307 299 288 284 279 275 273 271 265 261 255 254 253 256 258 255 247 253 250 251 249 241 242 242 236 238 220 218 199 205
nan nan nan nan nan nan nan nan nan nan nan nan nan nan nan nan nan nan nan nan nan nan nan nan nan nan nan nan nan nan nan nan nan nan nan nan nan nan nan nan nan nan 261 257 255 253 237 179 261 276 280 282 290 299 308 305 301 301 301 291 286 282 276 276 269 261 259 258 259 264 262 258 249 248 248 256 253 246 245 243 239 236 224 219 210 208
nan nan nan nan nan nan nan nan nan nan nan nan nan nan nan nan nan nan nan nan nan nan nan nan nan nan nan nan nan nan nan nan nan nan nan nan nan nan nan nan nan nan nan 256 253 257 257 240 251 261 278 285 294 299 304 301 303 307 310 299 291 290 287 280 275 266 259 258 260 265 263 259 253 249 254 259 254 256 251 247 246 240 234 218 219 214
nan nan nan nan nan nan nan nan nan nan nan nan nan nan nan nan nan nan nan nan nan nan nan nan nan nan nan nan nan nan nan nan nan nan nan nan nan nan nan nan nan nan nan 247 248 246 253 241 240 244 262 272 276 283 291 292 295 296 298 299 296 301 293 281 272 267 265 263 265 267 264 263 258 259 257 258 256 261 254 249 247 245 239 228 220 223
nan nan nan nan nan nan nan nan nan nan nan nan nan nan nan nan nan nan nan nan nan nan nan nan nan nan nan nan nan nan nan nan nan nan nan nan nan nan nan nan nan nan 238 245 245 239 242 240 246 248 258 261 269 279 281 286 288 291 298 303 302 298 292 282 274 270 269 268 269 268 266 268 265 263 263 261 257 265 261 253 248 244 244 237 224 228
nan nan nan nan nan nan nan nan nan nan nan nan nan nan nan nan nan nan nan nan nan nan nan nan nan nan nan nan nan nan nan nan nan nan nan nan nan nan nan nan 221 220 235 234 238 240 nan 240 241 248 256 257 265 269 268 272 278 282 288 299 296 293 290 288 280 276 271 268 268 267 271 269 267 268 270 266 262 265 264 257 251 249 246 243 234 230
nan nan nan nan nan nan nan nan nan nan nan nan nan nan nan nan nan nan nan nan nan nan nan nan nan nan nan nan nan nan nan nan nan nan nan nan nan nan nan nan nan 224 223 225 221 226 233 244 244 246 253 261 265 262 260 264 269 274 273 282 288 287 291 290 286 280 276 273 273 270 272 273 271 267 267 265 260 257 261 261 258 254 252 248 244 237
nan nan nan nan nan nan nan nan nan nan nan nan nan nan nan nan nan nan nan nan nan nan nan nan nan nan nan nan nan 248 233 224 nan nan nan nan nan nan nan nan nan nan 229 227 225 226 230 237 243 245 250 257 257 256 256 259 264 268 270 274 276 282 288 288 293 290 285 280 275 272 276 274 273 268 262 259 255 254 258 261 259 255 252 251 251 246
nan nan nan nan nan nan nan nan nan nan nan nan nan nan nan nan nan nan nan nan nan nan nan nan nan nan nan nan 231 240 226 220 nan nan 215 217 221 220 217 nan nan nan nan nan 227 228 233 237 239 245 249 251 254 257 259 258 258 260 266 270 272 276 287 289 291 296 295 290 286 280 275 271 269 266 263 260 257 257 256 259 259 256 253 253 251 247
nan nan nan nan nan nan nan nan nan nan nan nan nan nan nan nan nan nan nan nan nan nan nan nan nan nan nan 201 208 nan 214 nan nan nan 213 218 219 217 214 210 nan nan nan nan 221 226 227 229 236 237 241 241 246 251 257 257 257 262 267 273 278 275 278 281 290 296 299 299 295 286 277 272 267 267 267 263 263 259 257 258 258 259 258 256 253 249
nan nan nan nan nan nan nan nan nan nan nan nan nan nan nan nan nan nan nan nan nan nan nan nan nan nan nan 207 204 nan nan nan nan nan 209 213 211 212 210 209 212 211 nan 211 208 207 214 221 225 232 235 239 241 247 250 253 258 260 263 265 271 273 277 284 287 297 302 300 297 291 285 278 274 272 270 268 265 263 260 257 255 253 253 254 253 249
nan nan nan nan nan nan nan nan nan nan nan nan nan nan nan nan nan nan nan nan nan nan nan nan nan nan nan nan nan nan 191 194 nan nan nan 209 206 205 206 209 211 211 213 211 207 207 206 209 217 224 229 235 239 245 248 250 258 261 262 263 269 275 279 283 287 293 294 295 294 295 295 288 282 278 275 271 268 267 263 260 257 253 255 257 258 250
nan nan nan nan nan nan nan nan nan nan nan nan nan nan nan nan nan nan nan nan nan nan nan nan nan nan nan 210 nan 193 191 195 197 204 205 203 204 nan 201 210 213 209 211 210 207 206 207 210 209 213 223 224 229 237 246 254 257 261 265 265 264 267 273 280 283 282 286 291 294 297 298 293 290 285 281 278 273 269 266 263 262 263 262 264 257 254
nan nan nan nan nan nan nan nan nan nan nan nan nan nan nan nan nan nan nan nan nan nan nan nan nan nan nan nan 208 nan 203 202 201 201 204 205 203 206 206 209 212 211 208 208 207 205 208 210 212 210 209 214 223 228 237 246 254 258 261 257 255 258 259 266 273 278 284 286 291 295 297 295 294 293 288 283 278 274 272 271 269 268 263 259 257 255
219 nan nan nan nan nan nan nan nan nan nan nan nan nan nan nan nan nan nan nan nan nan nan nan nan nan nan nan nan nan 204 204 201 202 201 209 212 209 209 209 211 211 210 208 207 207 207 207 208 209 208 205 211 225 233 241 250 255 258 259 258 257 255 263 268 273 278 282 287 293 295 294 295 295 292 289 286 280 277 274 269 269 264 261 262 260
221 nan nan nan nan nan nan nan nan nan nan nan nan nan nan nan nan nan nan nan nan nan nan nan nan nan nan nan nan nan nan nan 201 202 213 216 nan 208 nan 208 208 209 209 208 206 207 207 207 208 207 209 212 211 216 233 241 250 255 259 262 262 258 256 258 261 271 277 280 288 294 294 294 293 294 294 293 290 287 283 277 272 271 266 261 261 258
nan 216 221 nan nan nan nan nan nan nan nan nan nan nan nan nan nan nan nan 225 225 221 220 220 223 nan nan nan nan nan 204 202 202 209 217 210 208 nan nan nan 205 207 208 207 207 207 208 206 207 208 212 216 216 216 228 242 250 254 257 260 262 259 257 257 261 270 278 283 286 289 291 292 293 295 296 295 293 292 288 282 277 272 267 266 262 263
228 nan 222 nan nan nan nan nan nan nan nan nan 215 213 215 212 209 216 221 nan nan 225 nan nan nan nan nan nan nan nan nan 203 205 217 nan 204 204 204 201 202 204 205 206 207 207 208 208 207 208 209 211 214 220 221 224 239 250 252 251 255 260 264 262 262 265 269 275 280 285 286 288 289 292 294 295 294 297 294 288 284 277 275 270 268 265 263
214 220 215 215 nan nan nan nan nan nan nan 221 213 212 213 nan 208 nan 215 nan nan nan nan nan nan nan nan nan nan nan 208 207 210 216 nan nan nan 203 201 201 202 202 204 206 206 207 208 209 208 207 209 210 218 226 227 236 251 253 252 252 258 265 267 267 267 270 276 280 281 283 284 286 289 292 295 297 298 293 289 285 279 274 269 267 264 260
nan 214 nan 222 212 nan nan nan nan nan nan 223 217 213 211 207 nan 212 nan nan 226 nan nan nan nan nan nan nan nan nan nan nan nan nan nan 200 199 201 202 201 201 200 201 204 205 207 207 207 209 209 211 214 220 226 231 239 248 250 252 253 252 258 265 270 271 272 271 272 276 279 280 281 286 290 294 295 292 289 286 281 277 276 273 269 265 262
nan nan nan 219 217 217 nan nan nan nan 224 224 216 214 nan nan nan 212 nan nan nan nan nan nan nan nan nan nan nan nan nan nan nan nan nan nan nan 199 200 201 201 201 202 203 205 205 207 208 211 211 212 217 222 228 232 241 246 249 249 250 248 252 260 265 266 266 267 271 276 278 281 280 284 290 292 288 287 286 287 284 281 276 273 271 267 265
231 nan nan 215 212 212 nan nan nan nan 227 219 218 212 216 nan nan nan nan nan nan nan nan nan nan nan nan nan nan nan nan nan nan nan nan nan nan 199 200 200 200 201 202 203 204 206 209 210 209 210 217 221 223 230 234 240 244 248 249 250 249 248 249 256 263 266 268 271 275 277 279 280 281 285 283 282 283 285 287 285 282 275 273 267 265 266
nan nan 222 225 220 212 210 nan nan nan 227 215 211 nan 220 214 213 nan nan nan nan nan nan nan nan nan nan nan nan nan nan nan nan nan nan nan 204 200 200 200 200 200 201 201 203 205 207 210 210 212 220 225 227 233 232 238 244 248 249 250 247 241 243 253 261 266 267 268 270 272 277 278 281 281 277 280 285 288 288 283 281 275 270 266 265 265
nan nan nan nan 209 210 219 nan nan nan nan nan 214 217 218 nan nan nan nan nan nan nan nan nan nan nan nan nan nan nan nan nan nan nan nan nan 204 200 200 200 201 201 200 200 202 204 203 209 212 217 222 224 229 235 234 237 242 246 248 246 241 238 243 251 258 262 265 265 267 270 274 276 279 279 277 282 283 285 284 282 277 271 266 264 263 262
nan nan nan nan nan nan nan 214 218 217 216 nan 220 218 219 nan nan nan nan nan nan nan nan nan nan nan nan nan nan nan nan nan nan nan nan 206 204 200 199 200 200 199 199 199 199 200 203 206 206 213 217 221 231 235 235 237 243 246 245 241 239 241 245 251 255 259 260 263 265 268 270 273 274 278 279 281 284 285 283 282 277 269 264 263 262 261
nan nan nan nan nan nan nan nan 199 207 214 215 nan nan nan nan nan nan nan nan nan nan nan nan nan nan nan nan nan nan nan nan nan nan 206 205 203 199 198 199 197 197 198 199 199 199 199 198 200 207 214 213 222 234 233 236 241 244 239 238 239 244 246 250 253 255 255 257 259 265 269 273 276 278 279 282 281 282 279 277 272 265 261 260 261 259
nan nan nan nan nan nan nan 224 214 205 nan nan nan nan nan nan nan nan nan nan nan nan nan nan nan nan nan nan nan nan nan nan 207 nan 206 204 202 198 197 196 194 196 197 197 197 194 193 194 198 200 203 212 213 221 230 232 235 236 236 236 241 244 246 249 250 250 249 252 256 261 266 272 272 273 275 279 278 279 277 271 264 260 259 258 257 257
nan nan nan nan nan nan nan nan nan 201 201 204 nan nan nan nan nan nan nan nan nan nan nan nan nan nan nan nan nan nan nan nan nan nan 205 203 199 197 195 193 192 195 197 198 196 192 190 194 197 201 203 210 212 214 216 222 224 228 232 237 241 243 245 245 245 245 246 251 253 257 263 268 270 271 271 276 276 274 270 263 259 258 258 255 252 250
nan nan nan nan nan nan nan nan nan nan nan 202 nan nan nan nan nan nan nan nan nan nan nan nan nan nan nan nan nan nan nan nan 206 nan 202 201 199 197 193 191 192 195 196 196 195 192 192 195 200 203 204 208 209 213 212 214 217 223 228 233 237 239 241 240 241 240 244 248 252 255 259 263 264 265 266 268 269 257 242 242 254 256 248 246 242 239
nan nan nan nan nan nan nan nan nan nan nan nan 211 211 nan nan nan nan nan nan nan nan nan nan nan nan nan nan nan nan nan nan nan nan 201 200 198 194 191 190 191 194 196 197 198 195 194 196 200 203 204 205 207 213 212 213 212 213 222 226 228 234 235 235 236 239 243 247 251 256 260 259 260 262 263 265 262 249 242 236 235 227 231 239 227 230
nan nan nan nan nan nan nan nan nan nan nan nan nan nan nan nan nan nan nan nan nan nan nan nan nan nan nan nan nan nan nan nan nan nan nan 199 197 194 192 190 190 193 198 199 200 198 198 199 199 203 204 204 203 209 213 215 213 211 213 213 219 226 229 232 233 236 242 248 251 256 257 256 256 257 254 256 257 253 251 245 234 230 229 231 232 234